This demonstration page uses our WeatherBlox Daily Observations layout. Learn more.

Left ArrowRight Arrow

Hourly Observations for December 7, 2022

Temp ( °F °C ) Dew Point ( °F °C ) Humidity (%) Winds ( mph kmh ) Pressure ( in mb ) Visibility ( mi km ) Precip ( " mm )
12:15 am 00:15 Clear 30 -1.1 20 -6.6 66 66 SSW 3 6 30.16 1021 10 16 0.00 0.00
12:35 am 00:35 Partly Cloudy 30 -1 20 -6.7 65 65 SSW 5 7 30.15 1021 10 16 0.00 0.00
12:55 am 00:55 Clear 29 -1.6 19 -7 67 67 SSW 5 7 30.15 1021 10 16 0.00 0.00
1:15 am 01:15 Clear 28 -2.1 19 -7.1 68 68 SW 3 6 30.14 1021 10 16 0.00 0.00
1:35 am 01:35 Clear 28 -2.4 19 -7.1 70 70 SW 3 6 30.16 1021 10 16 0.00 0.00
1:55 am 01:55 Clear 29 -1.6 19 -7.1 66 66 SW 5 7 30.16 1021 10 16 0.00 0.00
2:15 am 02:15 Clear 26 -3.5 18 -7.6 73 73 SSW 7 11 30.19 1022 10 16 0.00 0.00
2:35 am 02:35 Clear 26 -3.2 18 -7.7 71 71 SSW 6 9 30.20 1023 10 16 0.00 0.00
2:55 am 02:55 Clear 27 -2.9 19 -7.5 70 70 SW 6 9 30.19 1022 10 16 0.00 0.00
3:15 am 03:15 Clear 22 -5.4 16 -8.7 77 77 N 5 7 30.23 1024 10 16 0.00 0.00
3:35 am 03:35 Clear 23 -5.1 17 -8.6 76 76 NW 5 7 30.23 1024 10 16 0.00 0.00
3:55 am 03:55 Clear 25 -4.1 18 -7.9 75 75 WNW 5 7 30.21 1023 10 16 0.00 0.00
4:15 am 04:15 Clear 23 -4.8 17 -8.4 76 76 W 3 6 30.22 1023 10 16 0.00 0.00
4:35 am 04:35 Clear 24 -4.4 17 -8.2 75 75 W 3 6 30.21 1023 10 16 0.00 0.00
4:55 am 04:55 Clear 24 -4.4 18 -8 76 76 Calm 30.22 1023 10 16 0.00 0.00
5:15 am 05:15 Clear 23 -4.9 17 -8.2 78 78 WSW 5 7 30.22 1023 10 16 0.00 0.00
5:35 am 05:35 Clear 20 -6.4 15 -9.5 79 79 WNW 3 6 30.25 1024 10 16 0.00 0.00
5:55 am 05:55 Clear 20 -6.4 15 -9.4 79 79 W 5 7 30.25 1024 10 16 0.00 0.00
6:15 am 06:15 Clear 23 -5 18 -8 79 79 WNW 7 11 30.24 1024 10 16 0.00 0.00
6:35 am 06:35 Clear 24 -4.5 18 -8 76 76 NNW 8 13 30.26 1025 10 16 0.00 0.00
6:55 am 06:55 Clear 23 -5 17 -8.4 77 77 NW 6 9 30.27 1025 10 16 0.00 0.00
7:15 am 07:15 Clear 24 -4.7 17 -8.3 76 76 WNW 7 11 30.27 1025 10 16 0.00 0.00
7:35 am 07:35 Clear 24 -4.6 17 -8.5 74 74 WNW 5 7 30.28 1025 10 16 0.00 0.00
7:55 am 07:55 Sunny 24 -4.7 16 -8.7 73 73 WNW 5 7 30.28 1025 10 16 0.00 0.00
8:15 am 08:15 Sunny 22 -5.5 16 -8.8 77 77 NW 7 11 30.30 1026 10 16 0.00 0.00
8:35 am 08:35 Sunny 25 -3.8 18 -8 73 73 NNW 8 13 30.29 1026 10 16 0.00 0.00
8:55 am 08:55 Sunny 29 -1.5 18 -7.6 63 63 NNW 7 11 30.29 1026 10 16 0.00 0.00
9:15 am 09:15 Sunny 32 0 19 -7.5 57 57 NNW 7 11 30.28 1026 10 16 0.00 0.00
9:35 am 09:35 Sunny 35 1.4 19 -7.4 52 52 NNW 8 13 30.28 1025 10 16 0.00 0.00
9:55 am 09:55 Sunny 37 2.8 20 -6.6 50 50 NNW 7 11 30.27 1025 10 16 0.00 0.00
10:15 am 10:15 Sunny 42 5.7 19 -7 39 39 NNW 8 13 30.24 1024 10 16 0.00 0.00
10:35 am 10:35 Sunny 47 8.3 19 -7.5 32 32 N 16 26 30.23 1024 10 16 0.00 0.00
10:55 am 10:55 Sunny 46 7.9 17 -8.2 31 31 N 15 24 30.23 1024 10 16 0.00 0.00
11:15 am 11:15 Sunny 46 8 18 -7.6 32 32 N 14 22 30.23 1024 10 16 0.00 0.00
11:35 am 11:35 Sunny 46 7.6 18 -7.7 33 33 NNE 14 22 30.23 1024 10 16 0.00 0.00
11:55 am 11:55 Sunny 44 6.5 17 -8.2 34 34 NNE 16 26 30.24 1024 10 16 0.00 0.00
12:15 pm 12:15 Sunny 43 6 18 -7.7 37 37 NNE 16 26 30.25 1024 10 16 0.00 0.00
12:35 pm 12:35 Sunny 42 5.8 19 -7.1 39 39 NE 15 24 30.25 1024 10 16 0.00 0.00
12:55 pm 12:55 Sunny 41 5 19 -7.1 41 41 NNE 16 26 30.26 1025 10 16 0.00 0.00
1:15 pm 13:15 Sunny 39 4 19 -7 44 44 NE 15 24 30.28 1025 10 16 0.00 0.00
1:35 pm 13:35 Sunny 37 3 19 -7.4 46 46 NE 16 26 30.29 1026 10 16 0.00 0.00
1:55 pm 13:55 Sunny 36 2.4 18 -7.8 47 47 NNE 15 24 30.29 1026 10 16 0.00 0.00
2:15 pm 14:15 Sunny 35 1.9 17 -8.1 47 47 ENE 14 22 30.31 1026 10 16 0.00 0.00
2:35 pm 14:35 Sunny 35 1.6 17 -8.2 48 48 NE 13 20 30.31 1026 10 16 0.00 0.00
2:55 pm 14:55 Sunny 33 0.6 17 -8.6 50 50 NE 14 22 30.32 1027 10 16 0.00 0.00
3:15 pm 15:15 Sunny 33 0.5 17 -8.6 50 50 ENE 10 17 30.32 1027 10 16 0.00 0.00
3:35 pm 15:35 Sunny 32 0 16 -8.8 51 51 NE 13 20 30.33 1027 10 16 0.00 0.00
3:55 pm 15:55 Sunny 32 -0.2 16 -9 51 51 NE 13 20 30.34 1027 10 16 0.00 0.00
4:15 pm 16:15 Sunny 31 -0.8 16 -9.1 53 53 ENE 10 17 30.35 1028 10 16 0.00 0.00
4:35 pm 16:35 Sunny 29 -1.5 16 -9.1 56 56 ENE 10 17 30.36 1028 10 16 0.00 0.00
4:55 pm 16:55 Sunny 28 -2.2 15 -9.2 59 59 ENE 7 11 30.37 1028 10 16 0.00 0.00
5:15 pm 17:15 Clear 26 -3.3 15 -9.5 62 62 ENE 7 11 30.38 1029 10 16 0.00 0.00
5:35 pm 17:35 Clear 24 -4.2 15 -9.7 65 65 NE 7 11 30.39 1029 10 16 0.00 0.00
5:55 pm 17:55 Clear 23 -4.8 15 -9.7 68 68 NE 9 15 30.38 1029 10 16 0.00 0.00
6:15 pm 18:15 Clear 22 -5.3 15 -9.7 71 71 NE 7 11 30.41 1030 10 16 0.00 0.00
6:35 pm 18:35 Clear 22 -5.6 15 -9.5 74 74 NE 8 13 30.42 1030 10 16 0.00 0.00
6:55 pm 18:55 Clear 21 -6.1 15 -9.7 76 76 ENE 9 15 30.42 1030 10 16 0.00 0.00
7:15 pm 19:15 Clear 20 -6.4 14 -9.8 77 77 NE 9 15 30.43 1030 10 16 0.00 0.00
7:35 pm 19:35 Clear 19 -7 14 -9.8 80 80 NE 8 13 30.42 1030 10 16 0.00 0.00
7:55 pm 19:55 Clear 19 -7 15 -9.7 81 81 NE 7 11 30.43 1031 10 16 0.00 0.00
8:15 pm 20:15 Clear 19 -7.2 14 -9.8 82 82 ENE 8 13 30.43 1030 10 16 0.00 0.00
8:35 pm 20:35 Clear 18 -7.9 13 -10.4 82 82 NNE 5 7 30.44 1031 10 16 0.00 0.00
8:55 pm 20:55 Clear 17 -8.4 13 -10.4 85 85 ENE 7 11 30.45 1031 10 16 0.00 0.00
9:15 pm 21:15 Clear 18 -7.6 15 -9.7 85 85 NE 6 9 30.43 1031 10 16 0.00 0.00
9:35 pm 21:35 Clear 18 -7.8 14 -9.8 85 85 ENE 5 7 30.43 1031 10 16 0.00 0.00
9:55 pm 21:55 Clear 17 -8.6 13 -10.3 87 87 NNE 5 7 30.44 1031 10 16 0.00 0.00
10:15 pm 22:15 Clear 16 -9.1 13 -10.8 87 87 NNE 5 7 30.45 1031 10 16 0.00 0.00
10:35 pm 22:35 Clear 15 -9.6 12 -11.3 87 87 Calm 30.45 1031 10 16 0.00 0.00
10:55 pm 22:55 Clear 16 -8.7 14 -10.1 90 90 NE 5 7 30.42 1030 10 16 0.00 0.00
11:15 pm 23:15 Clear 18 -8 15 -9.6 88 88 E 9 15 30.41 1030 10 16 0.00 0.00
11:35 pm 23:35 Clear 17 -8.1 14 -9.9 87 87 ENE 6 9 30.41 1030 10 16 0.00 0.00
11:55 pm 23:55 Clear 17 -8.6 14 -10.2 88 88 NNE 6 9 30.42 1030 10 16 0.00 0.00

Powered by AerisWeather